Regional Weather Roundup
Issued by NWS Newport/Morehead, NC

Current Version | Previous Version | Graphics & Text | Print | Product List | Glossary On
Versions: 1 2 3 4 5 6 7 8 9 10 11 12 13 14 15 16 17 18 19 20 21 22 23 24 25 26 27 28 29 30 31 32 33 34 35 36 37 38 39 40 41 42 43 44 45 46 47 48 49 50
000 ASUS42 KMHX 201722 RWRMHX WEATHER ROUNDUP FOR EASTERN NORTH CAROLINA NATIONAL WEATHER SERVICE NEWPORT/MOREHEAD CITY NC 1200 PM EST SAT DEC 20 2014 NOTE: "FAIR" INDICATES FEW OR NO CLOUDS BELOW 12,000 FEET WITH NO SIGNIFICANT WEATHER AND/OR OBSTRUCTIONS TO VISIBILITY NCZ015>017-031-032-045>047-102-103-201800- NORTH COAST CITY SKY/WX TMP DP RH WIND PRES REMARKS EDENTON CLOUDY 41 32 71 NE6 30.27F ELIZABETH CITY CLOUDY 44 30 57 N8 30.28F KITTY HAWK CLOUDY 43 33 69 NE3 30.26F MANTEO CLOUDY 43 33 68 N7 30.26F $$ NCZ045>047-081-094-103-104-201800- CENTRAL COAST CITY SKY/WX TMP DP RH WIND PRES REMARKS FRISCO LGT RAIN 43 37 79 N8 30.26F SWANQUARTER N/A 41 N/A N/A N3 30.24S $$ NCZ095-097-098-100-101-201800- SOUTHERN COAST CITY SKY/WX TMP DP RH WIND PRES REMARKS BEAUFORT LGT RAIN 44 38 79 NE6 30.27S CEDAR ISLAND N/A 45 N/A N/A N14 30.27F JACKSONVILLE LGT RAIN 43 39 86 NE6 30.26F PINEY ISLAND CLOUDY 47 37 68 NE12 30.24F WILMINGTON LGT RAIN 45 42 89 NE9 30.23F $$ NCZ011>013-027>030-043-044-078>080-089-090>093-098-201800- COASTAL PLAIN CITY SKY/WX TMP DP RH WIND PRES REMARKS AHOSKIE CLOUDY 37 29 73 N3 30.30F CLINTON RAIN 39 38 97 N5 30.28F ELIZABETHTOWN CLOUDY 42 40 95 CALM 30.26F FOG GOLDSBORO CLOUDY 37 37 100 NE2 30.26F GREENVILLE DRIZZLE 39 34 81 CALM 30.30S HAVELOCK LGT RAIN 43 38 82 NE7 30.27F KENANSVILLE LGT RAIN 38 37 97 CALM 30.27F KINSTON LGT RAIN 39 34 81 N5 30.29F NEW BERN LGT RAIN 44 36 73 N5 30.28F RICHLANDS CLOUDY 41 36 81 N6 30.27F ROCKY MOUNT LGT RAIN 37 31 78 N6 30.30F WASHINGTON CLOUDY 40 33 77 N5 30.28S WHITEVILLE DRIZZLE 44 38 81 NE6 30.24F $$ AMZ130-135-150-152-154-156-158-170-250-252-270-ANZ085-086-088-633-658-670-201800- MARINE OBSERVATIONS STATION/POSITION TIME TEMP WIND PRES WAVE SWELL AIR SEA DIR/SP/G HT/PER HT/PER (UTC) (F) (DEG/KT/KT) (MB) (FT/S) (FT/S) CHESAPEAKE LIGHT 1700 38 10/ 8/ 10 1025.9 64 E VA BEACH 1700 43 54 340/ 10/ 12 1024.5 2/ 5 2/ 5 DUCK 1700 41 46 10/ 8/ 11 1024.1 2 E DUCK 1700 46 N/A 2/ 5 10 NE DUCK 1700 52 N/A 3/ 5 OREGON INLET 1700 44 49 360/ 7/ 10 1024.5 13E OREGON INLT 1700 52 N/A 3/ 5 HATTERAS CG 1700 44 52 30/ 9/ 15 1024.6 DIAMOND BUOY 1700 48 1024.3 3/ 7 17 S OCRACOKE NOT AVBL CAPE LOOKOUT 1700 44 10/ 9/ 11 1024.5 BEAUFORT LAB 1700 44 53 30/ 4/ 9 1023.8 30 SE NEW RIVER 1700 50 61 40/ 16/ 19 1024.1 3/ 4 2/ 7 5 SE WRIGHTSVLE NOT AVBL 225 S CAPE HAT 1605 64 72 120/ 8/ 14 1021.9 2/ 8 2/ 8 41 SE CHARLESTON 1700 61 68 20/ 12/ 16 1021.5 4/ 6 3/ 6 $$

USA.gov is the U.S. government's official web portal to all federal, state and local government web resources and services.